This demonstration page uses our WeatherBlox Daily Observations layout. Learn more.

Left ArrowRight Arrow

Hourly Observations for May 13, 2018

Temp ( °F °C ) Dew Point ( °F °C ) Humidity (%) Winds ( mph kmh ) Pressure ( in mb ) Visibility ( mi km ) Precip ( " mm )
12:53 am 00:53 Mostly Clear 67 19.4 60 15.6 79 79 Calm 30.03 1017 10 16 0.00 0.00
1:53 am 01:53 Clear 66 18.9 60 15.6 81 81 Calm 30.03 1017 10 16 0.00 0.00
2:53 am 02:53 Clear 62 16.7 58 14.4 86 86 NE 3 6 30.01 1016 10 16 0.00 0.00
3:53 am 03:53 Clear 61 16.1 58 14.4 90 90 Calm 30.00 1016 10 16 0.00 0.00
4:53 am 04:53 Clear 58 14.4 56 13.3 93 93 Calm 30.00 1016 10 16 0.00 0.00
5:53 am 05:53 Clear 59 15 57 13.9 93 93 Calm 29.99 1016 10 16 0.00 0.00
6:53 am 06:53 Sunny 59 15 57 13.9 93 93 Calm 30.01 1016 8 13 0.00 0.00
7:53 am 07:53 Sunny 66 18.9 61 16.1 84 84 Calm 30.02 1017 10 16 0.00 0.00
8:53 am 08:53 Sunny 74 23.3 64 17.8 71 71 SW 7 11 30.02 1017 10 16 0.00 0.00
9:53 am 09:53 Sunny 78 25.6 64 17.8 62 62 SW 8 13 30.02 1017 10 16 0.00 0.00
10:53 am 10:53 Sunny 82 27.8 66 18.9 58 58 SW 9 15 30.00 1016 10 16 0.00 0.00
11:53 am 11:53 Sunny 84 28.9 65 18.3 53 53 W 8 13 29.99 1016 10 16 0.00 0.00
12:53 pm 12:53 Mostly Cloudy 84 28.9 65 18.3 53 53 WSW 12 19 29.98 1015 10 16 0.00 0.00
1:53 pm 13:53 Mostly Cloudy 84 28.9 66 18.9 55 55 WSW 12 19 29.98 1015 10 16 0.00 0.00
2:53 pm 14:53 Mostly Cloudy 86 30 66 18.9 51 51 W 9 15 29.96 1015 10 16 0.00 0.00
3:53 pm 15:53 Partly Cloudy 88 31.1 67 19.4 50 50 WSW 13 20 29.95 1014 10 16 0.00 0.00
4:53 pm 16:53 Mostly Sunny 88 31.1 67 19.4 50 50 W 10 17 29.94 1014 10 16 0.00 0.00
5:53 pm 17:53 Partly Cloudy 87 30.6 65 18.3 48 48 WSW 12 19 29.94 1014 10 16 0.00 0.00
6:53 pm 18:53 Mostly Cloudy 86 30 65 18.3 49 49 W 8 13 29.94 1014 10 16 0.00 0.00
7:53 pm 19:53 Mostly Cloudy with Nearby Thunderstorms 84 28.9 65 18.3 53 53 WSW 5 7 29.93 1014 10 16 0.00 0.00
8:26 pm 20:26 Mostly Cloudy 83 28.3 66 18.9 57 57 W 5 7 29.94 1014 10 16 0.00 0.00
8:45 pm 20:45 Cloudy with Thunderstorms 81 27.2 67 19.4 62 62 NNW 7 11 29.94 1014 10 16 0.00 0.00
8:53 pm 20:53 Mostly Cloudy with Thunderstorms 80 26.7 67 19.4 64 64 NNW 6 9 29.96 1015 10 16 0.00 0.00
9:17 pm 21:17 Cloudy with Strong Thunderstorms 74 23.3 68 20 82 82 WNW 5 7 30.00 1016 2 3 0.18 4.57
9:22 pm 21:22 Mostly Cloudy with Light Rain 73 22.8 68 20 84 84 Calm 30.00 1016 5 8 0.18 4.57
9:31 pm 21:31 Partly Cloudy with Nearby Thunderstorms 71 21.7 69 20.6 94 94 W 3 6 30.00 1016 10 16 0.18 4.57
9:53 pm 21:53 Clear with Mist and Fog 71 21.7 70 21.1 96 96 Calm 29.97 1015 6 10 0.18 4.57
10:53 pm 22:53 Clear with Mist and Fog 70 21.1 69 20.6 97 97 S 3 6 29.97 1015 5 8 0.00 0.03
11:53 pm 23:53 Clear with Mist and Fog 69 20.6 68 20 96 96 Calm 29.94 1014 5 8 0.00 0.00

Powered by AerisWeather